HETB/TCP METAR and TAF weather

Enter ICAO airport designator
Station Type Date Time Source
HETB METAR 2018/02/10 18:00 UTC NOAA

HETB 101800Z NI


Station Type Date Time Source
HETB Decoded METAR 2018/02/10 18:00 UTC NOAA

Taba, Egypt (HETB) 29-35-57N 034-46-36E
Feb 10, 2018 - 01:00 PM EST / 2018.02.10 1800 UTC
ob: HETB 101800Z NI
cycle: 18

Station Type Date Time Source
HETB TAF 2019/02/21 12:56 UTC NOAA

TAF HETB 211100Z 2112/2218 02014KT CAVOK
BECMG 2121/2123 VRB03KT
BECMG 2206/2208 03013KT


Example: see airport list